SCP
0 0 0 0 0 0 0 0 0 0 0 0 1 1 1 1 1 1 1 2 2 2 2 3 3 3 3 3 3 3 3 2 2 1 2 2 2 1 1 1 1 1 1 1
0 0 0 0 0 0 0 0 0 0 0 0 1 1 1 1 1 1 1 2 2 2 3 4 4 3 3 3 3 3 2 2 1 1 2 2 2 1 1 1 1 1 1 1
0 0 0 0 0 0 0 0 0 0 0 0 1 1 1 1 1 1 1 2 2 2 3 4 4 3 3 2 2 2 2 2 1 1 2 2 1 1 1 1 1 1 1 1
0 0 0 0 0 0 0 0 0 0 0 0 0 1 1 1 1 1 1 2 2 2 3 4 4 3 3 2 2 2 2 2 2 2 2 2 1 1 1 1 1 1 1 1
0 0 0 0 0 0 0 0 0 0 0 0 0 0 1 1 1 1 1 2 2 3 3 4 3 3 3 2 2 2 2 2 3 2 2 2 1 1 1 1 1 1 1 1
0 0 0 0 0 0 0 0 0 0 0 0 0 0 0 1 1 1 1 2 3 3 3 3 3 2 2 2 2 3 3 4 4 4 3 3 2 2 2 1 1 1 1 1
0 0 0 0 0 0 0 0 0 0 0 0 0 0 0 0 1 1 2 2 3 4 4 3 3 3 3 3 3 4 5 6 6 6 4 4 3 3 2 1 1 1 1 1
0 0 0 0 0 0 0 0 0 0 0 0 0 0 0 1 1 2 2 3 4 5 4 3 3 3 3 3 3 4 7 9 10 8 6 5 4 3 3 2 2 1 1 2
0 0 0 0 0 0 0 0 0 0 0 0 0 0 0 1 1 2 3 4 4 4 4 3 3 3 3 2 3 5 9 13 14 12 9 6 4 3 3 3 3 2 2 2
0 0 0 0 0 0 0 0 0 0 0 0 0 0 1 1 1 2 3 4 5 5 4 3 3 3 3 4 5 8 11 15 16 13 9 6 3 3 3 4 4 3 3 3
0 0 0 0 0 0 0 0 0 0 0 0 0 0 1 1 1 2 3 4 6 7 7 6 5 6 7 8 10 13 14 14 13 10 7 5 4 3 3 4 4 4 3 3
0 0 0 0 0 0 0 0 0 0 0 0 0 0 0 1 1 2 3 4 6 8 10 9 9 11 13 14 15 15 14 11 9 7 6 5 5 3 3 4 4 4 4 4
0 0 0 0 0 0 0 0 0 0 0 0 0 0 1 1 1 3 5 6 7 8 10 11 12 14 15 15 14 13 11 8 7 6 6 5 4 4 3 4 4 4 4 5
0 0 0 0 0 0 0 0 0 0 0 0 0 0 1 2 3 4 6 7 7 8 9 10 11 11 11 10 9 8 7 6 5 5 5 4 3 3 3 4 4 4 5 6
0 0 0 0 0 0 0 0 0 0 0 0 1 1 1 2 4 5 6 7 7 7 8 8 9 8 7 6 5 5 5 5 4 4 4 3 3 3 3 3 3 4 6 7
0 0 0 0 0 0 0 0 0 0 0 1 1 2 2 3 5 6 6 6 6 6 6 6 7 7 5 4 4 4 4 4 4 4 4 3 3 2 3 3 3 4 6 7
0 0 0 0 0 0 0 0 0 0 1 2 2 2 3 4 5 6 6 6 6 6 5 5 6 5 4 4 4 5 5 4 4 4 4 4 4 4 4 4 4 4 5 6
0 0 0 0 0 0 0 0 0 1 2 2 2 3 4 5 6 5 4 5 6 6 5 5 5 4 5 5 6 7 7 6 5 4 4 5 6 6 6 7 6 5 5 5
0 0 0 0 0 0 0 0 1 2 3 4 4 4 4 5 6 5 4 4 6 6 5 5 4 4 5 6 8 9 9 9 7 6 5 7 9 9 10 10 9 7 5 5
0 0 0 0 0 0 1 1 1 2 4 5 5 4 4 4 4 4 4 5 6 7 7 7 6 6 6 8 10 11 11 10 9 9 8 10 12 12 12 12 10 7 6 6
0 0 0 0 0 1 2 2 1 2 3 3 3 3 3 3 3 4 5 7 8 9 10 10 10 9 8 10 12 13 12 11 11 11 12 13 13 13 13 11 9 7 6 5
0 0 0 0 0 1 2 2 2 1 2 2 2 3 4 4 5 5 6 8 10 11 11 12 12 11 10 10 11 12 11 11 11 12 12 12 12 12 11 9 8 7 6 5
1 1 1 1 1 2 2 2 2 2 2 2 3 4 5 5 6 7 8 9 10 11 11 11 11 10 9 9 9 9 9 9 10 11 11 11 10 10 9 8 8 8 7 7
1 1 2 2 2 2 2 1 2 2 3 3 4 4 4 5 6 7 8 9 10 9 8 8 7 7 7 7 8 8 8 8 9 10 11 11 11 11 10 9 9 9 8 8
1 1 2 2 2 2 1 1 2 3 4 5 5 4 4 4 5 6 7 9 10 9 8 7 6 5 6 6 6 8 9 9 9 10 11 12 13 13 11 10 9 8 8 7
1 1 1 1 1 1 1 1 2 3 4 6 6 5 4 5 5 6 6 7 9 10 9 7 6 5 6 6 6 7 8 9 10 11 12 13 14 14 12 10 8 7 6 6
Wind_Speed
1 4 2 6 7 6 6 4 4 5 5 6 6 7 9 8 7 7 8 8 9 8 8 8 9 8 7 6 5 5 4 3 3 2 2 2 1 1 1 1 2 3 3 4
4 2 8 6 4 3 3 3 3 1 3 5 5 4 5 8 10 11 11 11 10 8 7 8 8 8 7 7 6 5 5 4 3 2 2 2 2 1 1 1 1 2 3 4
6 8 5 5 5 4 3 5 5 5 2 4 5 2 2 4 5 7 9 9 10 11 11 10 9 8 7 7 7 6 5 4 4 3 3 3 2 2 1 1 1 1 3 3
5 5 3 3 4 5 3 5 6 5 5 1 4 2 5 5 5 7 9 10 10 10 10 10 9 9 9 8 7 6 6 5 4 4 4 4 3 3 2 2 1 1 2 3
5 3 3 5 6 5 6 5 5 4 4 2 1 3 6 3 6 9 11 12 12 11 12 12 11 10 9 9 8 7 6 5 5 5 5 4 3 2 1 2 2 1 0 1
6 4 4 6 4 4 4 5 5 5 6 1 3 4 5 6 11 11 12 12 13 12 12 11 10 9 8 8 8 7 7 6 5 5 5 5 5 4 3 2 2 1 0 0
5 5 3 2 1 2 6 7 4 5 4 4 3 3 8 10 10 12 13 13 12 12 11 10 10 10 9 9 9 8 8 6 6 6 5 5 5 5 5 4 3 2 1 1
2 5 4 2 5 4 3 9 8 5 4 3 1 4 8 7 7 7 8 9 10 10 10 11 11 11 11 11 10 9 9 7 6 6 5 5 5 4 3 4 4 3 3 3
5 6 5 2 3 6 3 2 7 8 2 1 3 3 5 2 4 5 7 8 9 9 10 10 10 10 10 10 10 10 10 8 7 7 6 5 5 4 4 3 3 2 2 3
6 3 4 2 3 2 5 6 6 5 4 0 3 2 4 3 3 4 7 9 9 8 8 9 8 9 9 9 8 9 9 9 7 7 6 5 5 5 4 4 3 3 3 3
4 4 4 3 1 2 2 2 5 4 6 6 2 6 6 7 6 6 7 8 9 9 9 8 7 6 7 7 7 7 7 7 6 6 5 5 4 4 4 4 3 3 3 3
2 6 2 5 5 3 4 4 6 5 3 5 5 7 5 7 6 7 6 6 7 8 7 7 7 6 6 6 6 6 6 7 6 6 6 5 5 5 4 4 4 4 4 3
4 6 2 6 7 5 2 1 4 5 5 4 4 5 2 2 4 5 6 6 7 7 7 6 7 6 6 6 6 5 6 6 5 5 5 5 4 5 5 5 4 4 4 3
6 5 7 8 7 3 1 1 1 5 3 3 5 5 2 2 4 4 5 7 7 7 7 7 7 6 6 6 6 6 5 6 6 5 5 5 5 5 5 4 3 3 4 4
6 4 2 4 4 2 1 2 2 2 5 6 6 6 8 8 7 7 7 7 7 7 7 7 7 6 5 5 5 5 5 5 6 5 5 5 5 4 3 3 3 3 3 4
5 4 2 2 2 2 2 2 2 2 2 3 4 3 5 5 5 6 7 8 8 7 8 8 7 7 6 6 5 5 5 5 5 5 5 4 3 3 3 3 3 3 3 3
3 5 3 2 3 4 3 4 3 1 2 5 5 6 4 5 6 7 8 8 8 8 7 7 8 7 7 7 6 6 5 4 5 5 4 4 4 3 4 4 3 3 3 3
5 4 4 1 2 3 8 4 3 3 1 0 3 5 7 8 6 4 6 8 7 6 6 6 6 6 6 7 6 5 4 4 4 4 4 4 4 4 3 3 3 3 3 3
7 7 4 4 2 5 6 3 1 4 2 1 4 4 6 7 7 4 1 4 5 5 5 6 6 5 6 6 7 6 5 5 4 4 4 4 4 4 4 4 4 3 3 3
5 6 6 4 3 5 6 5 1 7 0 3 4 5 6 7 4 3 2 3 4 4 4 4 4 4 4 4 6 6 5 5 5 6 5 4 4 4 4 4 3 2 2 3
3 3 4 4 3 6 6 5 3 4 6 3 3 5 6 5 6 5 4 3 3 3 3 4 4 4 4 5 6 6 5 6 6 5 4 4 4 4 4 3 2 2 2 2
4 4 4 4 4 8 5 2 3 5 3 2 3 4 6 5 5 4 4 4 4 3 3 4 4 3 2 4 5 5 5 5 4 4 4 4 4 4 3 3 3 2 2 2
3 6 6 6 7 6 1 2 2 3 4 3 4 4 6 5 4 4 4 3 3 3 3 3 3 2 2 3 4 4 4 3 4 4 4 4 4 4 3 4 4 3 3 3
3 1 3 1 2 2 2 3 4 3 3 3 4 5 6 4 3 3 4 3 3 2 2 3 3 2 1 2 3 4 3 3 4 4 4 4 4 3 3 3 3 3 4 3
2 1 2 1 2 4 5 3 2 3 4 4 4 4 4 4 3 3 3 2 2 2 1 2 3 2 2 2 2 2 2 3 4 4 4 4 4 4 4 3 3 4 4 5
2 2 3 4 4 2 3 4 2 3 2 3 4 3 2 3 3 3 2 2 2 2 2 2 2 2 2 2 2 2 3 4 4 4 4 4 4 3 3 3 3 3 4 5
Wind_Direction
18 83 196 214 193 195 191 182 193 207 181 132 152 168 174 174 168 166 165 167 172 178 173 163 158 153 147 144 140 138 133 136 124 116 119 120 123 122 109 125 127 123 125 130
25 250 224 215 220 218 197 157 158 177 163 129 137 166 188 182 183 176 169 172 173 163 159 162 160 158 157 158 154 148 148 149 149 154 148 147 145 144 145 131 120 122 126 132
204 234 210 187 214 214 217 171 168 171 131 83 102 36 214 211 182 174 171 171 170 169 170 171 167 170 165 165 165 160 161 164 165 150 122 112 90 71 64 89 131 142 139 137
240 240 212 214 219 181 218 194 171 155 118 177 137 173 249 212 198 182 181 178 181 177 170 172 173 174 175 175 168 160 164 172 166 149 139 143 148 157 180 171 155 140 139 145
252 225 199 214 227 184 203 173 161 156 128 87 79 127 270 202 208 202 189 185 185 182 176 177 179 179 177 172 167 167 166 173 167 155 152 146 148 161 156 127 121 109 89 149
255 254 207 204 221 165 137 77 53 57 74 66 226 148 252 215 208 198 192 188 185 182 181 181 178 171 171 170 168 170 168 176 172 165 158 155 157 155 141 140 140 147 118 183
307 297 265 177 91 4 96 89 42 11 19 250 233 167 238 226 204 190 187 188 185 179 178 178 174 173 174 175 176 173 172 178 178 171 169 169 168 162 163 168 168 171 180 197
200 278 256 197 168 180 168 134 152 183 211 269 289 217 252 231 193 181 177 172 171 174 176 178 179 180 181 180 178 175 176 179 178 176 177 175 172 168 171 174 171 180 193 202
180 242 270 231 171 147 141 165 166 138 135 80 288 291 323 45 124 147 157 155 163 175 178 180 180 181 183 181 181 180 177 178 181 180 174 173 174 172 177 180 177 188 195 193
162 220 283 288 47 10 155 159 95 104 128 173 301 275 237 219 181 162 163 164 170 172 173 174 179 179 179 178 178 177 177 182 181 178 181 181 181 179 178 176 182 188 195 191
137 148 300 3 136 212 34 73 103 116 146 146 201 269 230 197 186 173 171 164 163 161 163 163 169 171 162 157 162 170 176 176 176 179 181 178 181 185 182 185 194 194 195 193
136 126 227 259 253 189 158 159 141 143 200 156 162 256 249 182 181 173 166 153 155 158 157 155 154 150 150 153 155 159 164 170 176 174 171 180 182 182 188 197 201 196 198 203
120 108 82 337 338 1 54 150 142 129 120 144 154 252 265 161 153 164 157 146 145 144 144 144 145 148 151 154 157 160 166 170 169 163 164 176 181 183 195 204 203 195 195 199
106 106 152 189 214 231 265 298 115 117 136 186 199 205 242 182 166 162 149 142 140 145 144 147 152 156 158 160 160 164 169 168 161 158 168 181 191 193 199 200 196 196 192 191
89 107 167 206 219 206 220 257 246 179 182 181 209 189 208 195 175 160 143 129 130 141 145 156 160 157 153 153 157 162 167 167 163 162 172 189 195 191 186 193 199 198 195 196
78 107 65 341 342 18 326 276 257 232 182 170 156 218 221 185 140 127 137 141 143 153 162 163 162 157 157 161 165 162 161 162 153 158 172 176 172 179 191 203 201 200 205 203
88 107 94 279 315 30 296 243 204 226 206 168 181 210 164 133 145 158 159 157 155 159 159 164 170 171 170 167 167 171 172 159 156 167 174 173 173 181 195 199 192 204 211 206
131 109 123 135 47 227 244 251 147 116 31 159 164 164 156 158 158 150 151 154 159 158 155 162 172 179 174 165 161 163 160 156 161 170 183 187 187 198 200 196 205 212 205 206
143 134 121 120 167 275 291 290 169 124 347 12 128 140 144 131 87 46 134 151 162 166 164 166 175 180 170 162 160 154 163 169 169 181 194 199 198 202 203 208 213 211 208 220
77 106 118 128 155 227 254 281 217 105 1 288 133 140 149 118 116 226 221 161 145 148 160 157 156 148 157 167 154 151 167 175 190 197 199 196 192 197 209 213 209 209 209 219
55 68 128 155 194 254 259 286 46 121 215 246 149 141 136 145 176 193 163 137 132 139 143 136 134 147 172 167 152 164 180 197 202 192 185 190 195 198 196 191 189 186 196 201
172 157 178 153 183 247 284 39 134 200 196 135 111 112 116 131 140 138 131 129 121 111 110 125 134 147 155 152 154 169 199 210 186 175 184 196 197 196 187 179 191 193 189 200
172 181 178 181 209 238 288 127 163 147 120 114 109 103 109 115 129 128 124 122 124 128 122 123 130 141 150 165 166 189 215 197 177 176 193 202 198 197 186 183 194 198 198 206
315 51 97 56 299 326 18 59 55 68 100 109 113 109 101 105 122 121 115 109 106 115 132 130 127 137 196 206 198 209 214 191 181 192 204 203 197 200 196 194 196 198 205 211
273 14 73 30 311 358 356 5 42 54 74 90 91 99 112 115 119 133 136 142 144 136 143 144 151 175 212 216 216 218 203 182 193 206 210 204 201 200 201 203 212 214 221 217
260 182 159 219 239 200 273 310 7 55 56 98 95 85 94 123 140 136 153 170 162 158 154 147 162 188 217 216 227 233 216 199 201 211 215 210 206 203 205 205 238 254 244 251